| time (UTC) | temp F | wind direction | speed MPH | gust MPH | rain 1hr in | rain 24hr in | rain mn in | humidity % | barometer mb |
| 20260505010303 | 74 | 166 | 3.0 | 7.0 | 0.00 | 0.00 | 0.00 | 46 | 997.5 |
| 20260505005803 | 74 | 131 | 4.0 | 9.0 | 0.00 | 0.00 | 0.00 | 46 | 997.4 |
| 20260505005304 | 75 | 184 | 3.0 | 7.0 | 0.00 | 0.00 | 0.00 | 46 | 997.4 |
| 20260505004804 | 75 | 116 | 3.0 | 8.0 | 0.00 | 0.00 | 0.00 | 45 | 997.2 |
| 20260505003303 | 75 | 198 | 4.0 | 8.0 | 0.00 | 0.00 | 0.00 | 45 | 997.2 |
| 20260505002304 | 76 | 166 | 5.0 | 10.0 | 0.00 | 0.00 | 0.00 | 44 | 997.3 |
| 20260505001803 | 76 | 147 | 5.0 | 10.0 | 0.00 | 0.00 | 0.00 | 44 | 997.1 |
| 20260505001304 | 76 | 140 | 5.0 | 10.0 | 0.00 | 0.00 | 0.00 | 44 | 997.2 |
| 20260505000803 | 77 | 109 | 4.0 | 12.0 | 0.00 | 0.00 | 0.00 | 44 | 997.2 |
| 20260504235803 | 77 | 132 | 5.0 | 12.0 | 0.00 | 0.00 | 0.00 | 41 | 997.2 |
| 20260504234804 | 77 | 156 | 3.0 | 18.0 | 0.00 | 0.00 | 0.00 | 41 | 997.2 |
| 20260504233803 | 78 | 149 | 3.0 | 12.0 | 0.00 | 0.00 | 0.00 | 42 | 997.3 |
| 20260504233303 | 78 | 203 | 2.0 | 6.0 | 0.00 | 0.00 | 0.00 | 41 | 997.3 |
| 20260504232304 | 79 | 130 | 2.0 | 12.0 | 0.00 | 0.00 | 0.00 | 41 | 997.4 |
| 20260504231804 | 79 | 224 | 3.0 | 12.0 | 0.00 | 0.00 | 0.00 | 39 | 997.3 |
| 20260504231303 | 79 | 193 | 3.0 | 8.0 | 0.00 | 0.00 | 0.00 | 39 | 997.4 |
| 20260504230804 | 80 | 158 | 4.0 | 12.0 | 0.00 | 0.00 | 0.00 | 39 | 997.4 |
| 20260504225305 | 80 | 109 | 3.0 | 14.0 | 0.00 | 0.00 | 0.00 | 38 | 997.5 |
| 20260504224804 | 80 | 142 | 3.0 | 8.0 | 0.00 | 0.00 | 0.00 | 37 | 997.5 |
| 20260504224303 | 80 | 16 | 3.0 | 12.0 | 0.00 | 0.00 | 0.00 | 38 | 997.5 |
| 20260504223803 | 80 | 5 | 5.0 | 10.0 | 0.00 | 0.00 | 0.00 | 38 | 997.5 |
| 20260504223304 | 80 | 154 | 4.0 | 10.0 | 0.00 | 0.00 | 0.00 | 37 | 997.5 |
| 20260504222803 | 80 | 133 | 6.0 | 13.0 | 0.00 | 0.00 | 0.00 | 38 | 997.5 |
| 20260504222305 | 81 | 131 | 7.0 | 14.0 | 0.00 | 0.00 | 0.00 | 36 | 997.5 |
| 20260504221304 | 81 | 132 | 5.0 | 8.0 | 0.00 | 0.00 | 0.00 | 38 | 997.5 |
| 20260504213304 | 81 | 133 | 3.0 | 13.0 | 0.00 | 0.00 | 0.00 | 38 | 997.7 |
| 20260504211804 | 81 | 131 | 6.0 | 13.0 | 0.00 | 0.00 | 0.00 | 38 | 997.6 |
| 20260504211303 | 82 | 128 | 9.0 | 14.0 | 0.00 | 0.00 | 0.00 | 38 | 997.7 |
| 20260504210303 | 82 | 132 | 8.0 | 16.0 | 0.00 | 0.00 | 0.00 | 37 | 997.9 |
| 20260504202804 | 83 | 126 | 6.0 | 9.0 | 0.00 | 0.00 | 0.00 | 36 | 998.3 |
| 20260504201803 | 82 | 324 | 6.0 | 10.0 | 0.00 | 0.00 | 0.00 | 40 | 998.4 |
| 20260504200303 | 82 | 130 | 9.0 | 13.0 | 0.00 | 0.00 | 0.00 | 38 | 998.7 |
| 20260504195804 | 82 | 130 | 9.0 | 13.0 | 0.00 | 0.00 | 0.00 | 37 | 998.8 |
| 20260504195304 | 82 | 128 | 6.0 | 10.0 | 0.00 | 0.00 | 0.00 | 38 | 998.8 |
| 20260504194804 | 82 | 128 | 6.0 | 10.0 | 0.00 | 0.00 | 0.00 | 38 | 998.9 |
| 20260504194304 | 82 | 122 | 7.0 | 14.0 | 0.00 | 0.00 | 0.00 | 38 | 999.0 |
| 20260504193304 | 82 | 131 | 7.0 | 13.0 | 0.00 | 0.00 | 0.00 | 37 | 999.2 |
| 20260504192804 | 82 | 129 | 6.0 | 10.0 | 0.00 | 0.00 | 0.00 | 37 | 999.3 |
| 20260504192304 | 82 | 122 | 5.0 | 13.0 | 0.00 | 0.00 | 0.00 | 37 | 999.2 |
| 20260504191804 | 82 | 121 | 7.0 | 12.0 | 0.00 | 0.00 | 0.00 | 38 | 999.2 |
| 20260504191303 | 82 | 322 | 5.0 | 8.0 | 0.00 | 0.00 | 0.00 | 38 | 999.4 |
| 20260504190804 | 82 | 320 | 5.0 | 9.0 | 0.00 | 0.00 | 0.00 | 38 | 999.6 |
| 20260504185804 | 82 | 324 | 5.0 | 10.0 | 0.00 | 0.00 | 0.00 | 40 | 999.5 |
| 20260504185304 | 82 | 128 | 5.0 | 10.0 | 0.00 | 0.00 | 0.00 | 37 | 999.6 |
| 20260504184304 | 81 | 131 | 9.0 | 13.0 | 0.00 | 0.00 | 0.00 | 40 | 999.7 |
| 20260504183803 | 81 | 46 | 5.0 | 8.0 | 0.00 | 0.00 | 0.00 | 42 | 999.7 |
| 20260504183304 | 80 | 115 | 5.0 | 20.0 | 0.00 | 0.00 | 0.00 | 39 | 999.8 |
| 20260504182304 | 80 | 142 | 6.0 | 18.0 | 0.00 | 0.00 | 0.00 | 40 | 1000.0 |
| 20260504181803 | 79 | 153 | 5.0 | 18.0 | 0.00 | 0.00 | 0.00 | 40 | 999.9 |
| 20260504181303 | 79 | 85 | 3.0 | 12.0 | 0.00 | 0.00 | 0.00 | 43 | 1000.1 |
| 20260504180303 | 80 | 107 | 4.0 | 10.0 | 0.00 | 0.00 | 0.00 | 39 | 1000.3 |
| 20260504174803 | 80 | 102 | 5.0 | 10.0 | 0.00 | 0.00 | 0.00 | 40 | 1000.3 |
| 20260504174303 | 80 | 327 | 5.0 | 12.0 | 0.00 | 0.00 | 0.00 | 41 | 1000.5 |
| 20260504173804 | 80 | 336 | 4.0 | 15.0 | 0.00 | 0.00 | 0.00 | 44 | 1000.6 |
| 20260504173304 | 80 | 123 | 3.0 | 12.0 | 0.00 | 0.00 | 0.00 | 44 | 1000.6 |
| 20260504172804 | 80 | 328 | 4.0 | 8.0 | 0.00 | 0.00 | 0.00 | 41 | 1000.5 |
| 20260504172304 | 79 | 108 | 3.0 | 10.0 | 0.00 | 0.00 | 0.00 | 43 | 1000.6 |
| 20260504171304 | 79 | 317 | 3.0 | 7.0 | 0.00 | 0.00 | 0.00 | 43 | 1000.7 |
| 20260504160304 | 76 | 228 | 3.0 | 3.0 | 0.00 | 0.00 | 0.00 | 49 | 1001.7 |
| 20260504150804 | 72 | 227 | 3.0 | 12.0 | 0.00 | 0.00 | 0.00 | 55 | 1002.0 |
| 20260504150304 | 73 | 228 | 3.0 | 3.0 | 0.00 | 0.00 | 0.00 | 55 | 1002.0 |
| 20260504140304 | 69 | 230 | 3.0 | 6.0 | 0.00 | 0.00 | 0.00 | 64 | 1002.3 |
| 20260504130803 | 64 | 125 | 3.0 | 6.0 | 0.00 | 0.00 | 0.00 | 70 | 1001.9 |
| 20260504130304 | 64 | 154 | 3.0 | 5.0 | 0.00 | 0.00 | 0.00 | 70 | 1001.9 |
| 20260504100304 | 58 | 53 | 0.0 | 2.0 | 0.00 | 0.00 | 0.00 | 77 | 1001.4 |
| 20260504080803 | 62 | 188 | 1.0 | 5.0 | 0.00 | 0.00 | 0.00 | 64 | 1001.7 |
| 20260504050305 | 60 | 105 | 0.0 | 0.0 | 0.00 | 0.00 | 0.00 | 69 | 1003.2 |
| 20260504045805 | 60 | 105 | 0.0 | 1.0 | 0.00 | 0.00 | 0.00 | 67 | 1003.1 |
| 20260504044804 | 60 | 97 | 0.0 | 2.0 | 0.00 | 0.00 | 0.00 | 66 | 1003.1 |
| 20260504044304 | 61 | 271 | 0.0 | 0.0 | 0.00 | 0.00 | 0.00 | 66 | 1003.2 |
| 20260504043304 | 61 | 148 | 1.0 | 3.0 | 0.00 | 0.00 | 0.00 | 64 | 1003.2 |
| 20260504042803 | 61 | 125 | 1.0 | 3.0 | 0.00 | 0.00 | 0.00 | 64 | 1003.2 |
| 20260504042305 | 60 | 132 | 1.0 | 3.0 | 0.00 | 0.00 | 0.00 | 66 | 1003.2 |
| 20260504041304 | 61 | 107 | 1.0 | 3.0 | 0.00 | 0.00 | 0.00 | 65 | 1003.1 |
| 20260504040304 | 61 | 114 | 1.0 | 2.0 | 0.00 | 0.00 | 0.00 | 64 | 1003.1 |
| 20260504034804 | 61 | 134 | 1.0 | 3.0 | 0.00 | 0.00 | 0.00 | 62 | 1003.2 |
| 20260504034304 | 61 | 81 | 1.0 | 3.0 | 0.00 | 0.00 | 0.00 | 65 | 1003.2 |
| 20260504033804 | 61 | 225 | 1.0 | 1.0 | 0.00 | 0.00 | 0.00 | 64 | 1003.3 |
| 20260504032804 | 61 | 226 | 1.0 | 1.0 | 0.00 | 0.00 | 0.00 | 64 | 1003.4 |
| 20260504025803 | 62 | 226 | 1.0 | 1.0 | 0.00 | 0.00 | 0.00 | 63 | 1003.6 |
| 20260504025304 | 62 | 225 | 0.0 | 1.0 | 0.00 | 0.00 | 0.00 | 62 | 1003.5 |
| 20260504024802 | 62 | 226 | 1.0 | 1.0 | 0.00 | 0.00 | 0.00 | 60 | 1003.5 |
| 20260504023803 | 62 | 226 | 1.0 | 1.0 | 0.00 | 0.00 | 0.00 | 61 | 1003.4 |
| 20260504022803 | 62 | 226 | 1.0 | 1.0 | 0.00 | 0.00 | 0.00 | 60 | 1003.4 |
| 20260504021803 | 62 | 226 | 1.0 | 1.0 | 0.00 | 0.00 | 0.00 | 59 | 1003.3 |
| 20260504020803 | 63 | 226 | 1.0 | 1.0 | 0.00 | 0.00 | 0.00 | 58 | 1003.3 |
| 20260504015304 | 64 | 226 | 1.0 | 1.0 | 0.00 | 0.00 | 0.00 | 58 | 1003.2 |
| 20260504014802 | 64 | 226 | 1.0 | 1.0 | 0.00 | 0.00 | 0.00 | 59 | 1003.1 |
| 20260504014303 | 64 | 226 | 0.0 | 1.0 | 0.00 | 0.00 | 0.00 | 57 | 1003.0 |
| 20260504013802 | 65 | 226 | 0.0 | 1.0 | 0.00 | 0.00 | 0.00 | 54 | 1003.0 |
| 20260504013302 | 65 | 226 | 0.0 | 1.0 | 0.00 | 0.00 | 0.00 | 58 | 1003.0 |
| 20260504011802 | 66 | 227 | 1.0 | 2.0 | 0.00 | 0.00 | 0.00 | 52 | 1003.0 |